| time (UTC) | temp F | wind direction | speed knots | gust knots | rain 1hr in | rain 24hr in | rain mn in | humidity % | barometer mb |
| 20260503234357 | 58 | 307 | 0.0 | 0.0 | 0.00 | 0.00 | 0.00 | 59 | |
| 20260503233857 | 58 | 307 | 0.0 | 0.0 | 0.00 | 0.00 | 0.00 | 58 | |
| 20260503233357 | 59 | 307 | 0.0 | 0.0 | 0.00 | 0.00 | 0.00 | 59 | |
| 20260503232856 | 59 | 307 | 0.0 | 0.0 | 0.00 | 0.00 | 0.00 | 58 | |
| 20260503232356 | 59 | 307 | 0.0 | 0.0 | 0.00 | 0.00 | 0.00 | 58 | |
| 20260503231856 | 59 | 307 | 0.0 | 0.0 | 0.00 | 0.00 | 0.00 | 57 | |
| 20260503231356 | 59 | 307 | 0.0 | 0.0 | 0.00 | 0.00 | 0.00 | 57 | |
| 20260503230855 | 59 | 307 | 0.0 | 0.0 | 0.00 | 0.00 | 0.00 | 57 | |
| 20260503230355 | 59 | 307 | 0.0 | 0.0 | 0.00 | 0.00 | 0.00 | 56 | |
| 20260503225855 | 60 | 307 | 0.0 | 0.0 | 0.00 | 0.00 | 0.00 | 56 | |
| 20260503225354 | 60 | 307 | 0.0 | 0.0 | 0.00 | 0.00 | 0.00 | 55 | |
| 20260503224854 | 60 | 307 | 0.0 | 0.0 | 0.00 | 0.00 | 0.00 | 55 | |
| 20260503224354 | 60 | 307 | 0.0 | 0.0 | 0.00 | 0.00 | 0.00 | 55 | |
| 20260503223853 | 60 | 307 | 0.0 | 0.0 | 0.00 | 0.00 | 0.00 | 54 | |
| 20260503223353 | 60 | 307 | 0.0 | 0.0 | 0.00 | 0.00 | 0.00 | 54 | |
| 20260503222853 | 60 | 307 | 0.0 | 0.0 | 0.00 | 0.00 | 0.00 | 53 | |
| 20260503222353 | 61 | 307 | 0.0 | 0.0 | 0.00 | 0.00 | 0.00 | 53 | |
| 20260503221852 | 61 | 307 | 0.0 | 0.9 | 0.00 | 0.00 | 0.00 | 52 | |
| 20260503221352 | 61 | 355 | 0.0 | 0.0 | 0.00 | 0.00 | 0.00 | 51 | |
| 20260503220852 | 61 | 355 | 0.0 | 0.0 | 0.00 | 0.00 | 0.00 | 51 | |
| 20260503220351 | 62 | 355 | 0.0 | 0.9 | 0.00 | 0.00 | 0.00 | 51 | |
| 20260503215851 | 62 | 343 | 0.0 | 1.7 | 0.00 | 0.00 | 0.00 | 51 | |
| 20260503215351 | 62 | 219 | 0.0 | 1.7 | 0.00 | 0.00 | 0.00 | 51 | |
| 20260503214850 | 62 | 254 | 1.7 | 2.6 | 0.00 | 0.00 | 0.00 | 51 | |
| 20260503214350 | 62 | 195 | 0.9 | 3.5 | 0.00 | 0.00 | 0.00 | 52 | |
| 20260503213850 | 63 | 243 | 0.9 | 1.7 | 0.00 | 0.00 | 0.00 | 51 | |
| 20260503213350 | 63 | 171 | 0.0 | 0.0 | 0.00 | 0.00 | 0.00 | 51 | |
| 20260503212849 | 63 | 171 | 0.0 | 0.9 | 0.00 | 0.00 | 0.00 | 51 | |
| 20260503212349 | 63 | 209 | 0.0 | 2.6 | 0.00 | 0.00 | 0.00 | 51 | |
| 20260503211849 | 63 | 223 | 0.0 | 3.5 | 0.00 | 0.00 | 0.00 | 51 | |
| 20260503211348 | 63 | 225 | 0.0 | 4.3 | 0.00 | 0.00 | 0.00 | 51 | |
| 20260503210848 | 63 | 208 | 0.0 | 3.5 | 0.00 | 0.00 | 0.00 | 51 | |
| 20260503210348 | 63 | 199 | 0.0 | 1.7 | 0.00 | 0.00 | 0.00 | 51 | |
| 20260503205848 | 63 | 147 | 0.0 | 1.7 | 0.00 | 0.00 | 0.00 | 50 | |
| 20260503205347 | 63 | 246 | 0.0 | 5.2 | 0.00 | 0.00 | 0.00 | 50 | |
| 20260503204847 | 64 | 327 | 0.0 | 2.6 | 0.00 | 0.00 | 0.00 | 50 | |
| 20260503204347 | 64 | 239 | 0.0 | 4.3 | 0.00 | 0.00 | 0.00 | 50 | |
| 20260503203846 | 64 | 270 | 3.5 | 3.5 | 0.00 | 0.00 | 0.00 | 51 | |
| 20260503203346 | 64 | 220 | 0.0 | 3.5 | 0.00 | 0.00 | 0.00 | 51 | |
| 20260503202846 | 64 | 225 | 2.6 | 4.3 | 0.00 | 0.00 | 0.00 | 50 | |
| 20260503202345 | 64 | 199 | 0.0 | 1.7 | 0.00 | 0.00 | 0.00 | 51 | |
| 20260503201845 | 64 | 212 | 0.0 | 0.0 | 0.00 | 0.00 | 0.00 | 51 | |
| 20260503201345 | 64 | 192 | 0.0 | 3.5 | 0.00 | 0.00 | 0.00 | 51 | |
| 20260503200845 | 64 | 239 | 0.0 | 3.5 | 0.00 | 0.00 | 0.00 | 51 | |
| 20260503200344 | 64 | 316 | 0.0 | 4.3 | 0.00 | 0.00 | 0.00 | 51 | |
| 20260503195844 | 64 | 217 | 0.0 | 6.1 | 0.00 | 0.00 | 0.00 | 50 | |
| 20260503195344 | 64 | 219 | 1.7 | 7.0 | 0.00 | 0.00 | 0.00 | 51 | |
| 20260503194843 | 65 | 248 | 1.7 | 5.2 | 0.00 | 0.00 | 0.00 | 50 | |
| 20260503194343 | 65 | 288 | 5.2 | 5.2 | 0.00 | 0.00 | 0.00 | 49 | |
| 20260503193843 | 66 | 265 | 3.5 | 7.0 | 0.00 | 0.00 | 0.00 | 48 | |
| 20260503193343 | 66 | 217 | 3.5 | 8.7 | 0.00 | 0.00 | 0.00 | 46 | |
| 20260503192842 | 66 | 274 | 2.6 | 12.2 | 0.00 | 0.00 | 0.00 | 45 | |
| 20260503192342 | 66 | 236 | 7.0 | 13.0 | 0.00 | 0.00 | 0.00 | 43 | |
| 20260503191842 | 67 | 246 | 4.3 | 13.9 | 0.00 | 0.00 | 0.00 | 42 | |
| 20260503191341 | 67 | 253 | 3.5 | 10.4 | 0.00 | 0.00 | 0.00 | 41 | |
| 20260503190841 | 68 | 223 | 5.2 | 10.4 | 0.00 | 0.00 | 0.00 | 40 | |
| 20260503190341 | 68 | 36 | 0.0 | 7.0 | 0.00 | 0.00 | 0.00 | 42 | |
| 20260503185840 | 68 | 244 | 6.1 | 9.6 | 0.00 | 0.00 | 0.00 | 41 | |
| 20260503185340 | 68 | 270 | 2.6 | 8.7 | 0.00 | 0.00 | 0.00 | 42 | |
| 20260503184840 | 68 | 165 | 0.0 | 7.0 | 0.00 | 0.00 | 0.00 | 42 | |
| 20260503184340 | 68 | 101 | 0.9 | 5.2 | 0.00 | 0.00 | 0.00 | 42 | |
| 20260503183839 | 69 | 233 | 2.6 | 7.8 | 0.00 | 0.00 | 0.00 | 41 | |
| 20260503183339 | 69 | 268 | 1.7 | 7.8 | 0.00 | 0.00 | 0.00 | 41 | |
| 20260503182839 | 69 | 194 | 2.6 | 10.4 | 0.00 | 0.00 | 0.00 | 40 | |
| 20260503182338 | 69 | 213 | 1.7 | 5.2 | 0.00 | 0.00 | 0.00 | 41 | |
| 20260503181838 | 69 | 237 | 1.7 | 7.8 | 0.00 | 0.00 | 0.00 | 40 | |
| 20260503181338 | 70 | 258 | 0.0 | 6.1 | 0.00 | 0.00 | 0.00 | 39 | |
| 20260503180838 | 70 | 36 | 0.9 | 3.5 | 0.00 | 0.00 | 0.00 | 38 | |
| 20260503180337 | 70 | 327 | 0.0 | 7.0 | 0.00 | 0.00 | 0.00 | 37 | |
| 20260503175837 | 70 | 274 | 0.9 | 7.0 | 0.00 | 0.00 | 0.00 | 37 | |
| 20260503175337 | 71 | 185 | 0.0 | 4.3 | 0.00 | 0.00 | 0.00 | 37 | |
| 20260503174836 | 71 | 219 | 0.0 | 7.8 | 0.00 | 0.00 | 0.00 | 36 | |
| 20260503174336 | 71 | 265 | 0.9 | 7.8 | 0.00 | 0.00 | 0.00 | 35 | |
| 20260503173836 | 72 | 278 | 0.9 | 3.5 | 0.00 | 0.00 | 0.00 | 35 | |
| 20260503173335 | 72 | 285 | 0.0 | 3.5 | 0.00 | 0.00 | 0.00 | 35 | |
| 20260503172835 | 72 | 261 | 0.0 | 3.5 | 0.00 | 0.00 | 0.00 | 35 | |
| 20260503172335 | 72 | 274 | 1.7 | 7.0 | 0.00 | 0.00 | 0.00 | 34 | |
| 20260503171835 | 73 | 262 | 1.7 | 4.3 | 0.00 | 0.00 | 0.00 | 33 | |
| 20260503171334 | 73 | 288 | 0.0 | 6.1 | 0.00 | 0.00 | 0.00 | 32 | |
| 20260503170834 | 73 | 217 | 1.7 | 6.1 | 0.00 | 0.00 | 0.00 | 32 | |
| 20260503170334 | 74 | 247 | 4.3 | 4.3 | 0.00 | 0.00 | 0.00 | 32 | |
| 20260503150827 | 76 | 239 | 0.0 | 7.0 | 0.00 | 0.00 | 0.00 | 23 | |
| 20260503150327 | 77 | 258 | 3.5 | 10.4 | 0.00 | 0.00 | 0.00 | 22 | |
| 20260503131320 | 76 | 225 | 0.0 | 7.8 | 0.00 | 0.00 | 0.00 | 31 | |
| 20260503130820 | 75 | 196 | 0.9 | 5.2 | 0.00 | 0.00 | 0.00 | 30 | |
| 20260503130320 | 75 | 247 | 0.0 | 4.3 | 0.00 | 0.00 | 0.00 | 30 | |
| 20260503110813 | 75 | 255 | 0.9 | 11.3 | 0.00 | 0.00 | 0.00 | 25 | |
| 20260503110312 | 74 | 234 | 8.7 | 8.7 | 0.00 | 0.00 | 0.00 | 26 | |
| 20260503090305 | 74 | 265 | 0.0 | 2.6 | 0.00 | 0.00 | 0.00 | 32 | |
| 20260503081302 | 69 | 195 | 0.0 | 0.9 | 0.00 | 0.00 | 0.00 | 45 | |
| 20260503080802 | 69 | 222 | 0.0 | 1.7 | 0.00 | 0.00 | 0.00 | 46 | |
| 20260503080302 | 68 | 213 | 0.9 | 1.7 | 0.00 | 0.00 | 0.00 | 45 | |
| 20260503072800 | 63 | 225 | 0.0 | 0.0 | 0.00 | 0.00 | 0.00 | 58 | |
| 20260503072300 | 62 | 225 | 0.0 | 0.0 | 0.00 | 0.00 | 0.00 | 59 | |
| 20260503071759 | 62 | 225 | 0.0 | 0.0 | 0.00 | 0.00 | 0.00 | 61 | |
| 20260503071259 | 62 | 225 | 0.0 | 0.0 | 0.00 | 0.00 | 0.00 | 62 | |
| 20260503070759 | 62 | 225 | 0.0 | 0.0 | 0.00 | 0.00 | 0.00 | 64 | |
| 20260503070258 | 61 | 225 | 0.0 | 0.0 | 0.00 | 0.00 | 0.00 | 65 | |
| 20260503060255 | 58 | 330 | 0.0 | 0.0 | 0.00 | 0.00 | 0.00 | 69 | |
| 20260503054754 | 57 | 330 | 0.0 | 0.0 | 0.00 | 0.00 | 0.00 | 71 | |
| 20260503054254 | 57 | 330 | 0.0 | 0.0 | 0.00 | 0.00 | 0.00 | 71 | |
| 20260503053753 | 57 | 330 | 0.0 | 0.0 | 0.00 | 0.00 | 0.00 | 72 | |
| 20260503053253 | 56 | 330 | 0.0 | 0.0 | 0.00 | 0.00 | 0.00 | 72 | |
| 20260503052753 | 56 | 330 | 0.0 | 0.0 | 0.00 | 0.00 | 0.00 | 73 | |
| 20260503052252 | 56 | 330 | 0.0 | 0.0 | 0.00 | 0.00 | 0.00 | 73 | |
| 20260503051752 | 56 | 330 | 0.0 | 0.0 | 0.00 | 0.00 | 0.00 | 73 | |
| 20260503051252 | 56 | 330 | 0.0 | 0.0 | 0.00 | 0.00 | 0.00 | 74 | |
| 20260503050752 | 56 | 330 | 0.0 | 0.0 | 0.00 | 0.00 | 0.00 | 74 | |
| 20260503050251 | 56 | 330 | 0.0 | 0.0 | 0.00 | 0.00 | 0.00 | 74 | |
| 20260503045751 | 55 | 330 | 0.0 | 0.0 | 0.00 | 0.00 | 0.00 | 75 | |
| 20260503045251 | 56 | 348 | 0.0 | 0.9 | 0.00 | 0.00 | 0.00 | 75 | |
| 20260503044750 | 56 | 244 | 0.0 | 0.0 | 0.00 | 0.00 | 0.00 | 75 | |
| 20260503044250 | 56 | 244 | 0.0 | 0.0 | 0.00 | 0.00 | 0.00 | 75 | |
| 20260503043750 | 56 | 244 | 0.0 | 0.0 | 0.00 | 0.00 | 0.00 | 76 | |
| 20260503043250 | 55 | 244 | 0.0 | 0.0 | 0.00 | 0.00 | 0.00 | 76 | |
| 20260503042749 | 56 | 244 | 0.0 | 0.0 | 0.00 | 0.00 | 0.00 | 75 | |
| 20260503042249 | 55 | 244 | 0.0 | 0.0 | 0.00 | 0.00 | 0.00 | 75 | |
| 20260503041749 | 55 | 244 | 0.0 | 0.0 | 0.00 | 0.00 | 0.00 | 74 | |
| 20260503041248 | 55 | 244 | 0.0 | 0.0 | 0.00 | 0.00 | 0.00 | 73 | |
| 20260503040748 | 55 | 244 | 0.0 | 0.9 | 0.00 | 0.00 | 0.00 | 72 | |
| 20260503040248 | 55 | 233 | 0.0 | 0.9 | 0.00 | 0.00 | 0.00 | 71 | |
| 20260503035747 | 55 | 323 | 0.0 | 0.0 | 0.00 | 0.00 | 0.00 | 71 | |
| 20260503035247 | 55 | 323 | 0.0 | 0.0 | 0.00 | 0.00 | 0.00 | 71 | |
| 20260503034747 | 55 | 323 | 0.0 | 0.0 | 0.00 | 0.00 | 0.00 | 71 | |
| 20260503034247 | 55 | 323 | 0.0 | 0.0 | 0.00 | 0.00 | 0.00 | 71 | |
| 20260503033746 | 55 | 323 | 0.0 | 0.0 | 0.00 | 0.00 | 0.00 | 70 | |
| 20260503033246 | 55 | 323 | 0.0 | 0.9 | 0.00 | 0.00 | 0.00 | 70 | |
| 20260503032746 | 55 | 333 | 0.9 | 0.9 | 0.00 | 0.00 | 0.00 | 70 | |
| 20260503032245 | 55 | 310 | 0.0 | 0.0 | 0.00 | 0.00 | 0.00 | 69 | |
| 20260503031745 | 55 | 310 | 0.0 | 0.0 | 0.00 | 0.00 | 0.00 | 69 | |
| 20260503031245 | 55 | 310 | 0.0 | 0.0 | 0.00 | 0.00 | 0.00 | 69 | |
| 20260503030744 | 55 | 310 | 0.0 | 0.0 | 0.00 | 0.00 | 0.00 | 69 | |
| 20260503030244 | 56 | 310 | 0.0 | 0.0 | 0.00 | 0.00 | 0.00 | 69 | |
| 20260503025744 | 56 | 310 | 0.0 | 0.0 | 0.00 | 0.00 | 0.00 | 69 | |
| 20260503025244 | 56 | 310 | 0.0 | 0.0 | 0.00 | 0.00 | 0.00 | 68 | |
| 20260503024743 | 56 | 310 | 0.0 | 0.0 | 0.00 | 0.00 | 0.00 | 67 | |
| 20260503024243 | 57 | 310 | 0.0 | 0.0 | 0.00 | 0.00 | 0.00 | 67 | |
| 20260503023743 | 56 | 310 | 0.0 | 0.0 | 0.00 | 0.00 | 0.00 | 67 | |
| 20260503023242 | 57 | 310 | 0.0 | 0.0 | 0.00 | 0.00 | 0.00 | 67 | |
| 20260503022742 | 57 | 310 | 0.0 | 0.0 | 0.00 | 0.00 | 0.00 | 67 | |
| 20260503022242 | 56 | 310 | 0.0 | 0.0 | 0.00 | 0.00 | 0.00 | 67 | |
| 20260503021742 | 56 | 310 | 0.0 | 0.0 | 0.00 | 0.00 | 0.00 | 68 | |
| 20260503021241 | 57 | 310 | 0.0 | 0.0 | 0.00 | 0.00 | 0.00 | 67 | |
| 20260503020741 | 57 | 310 | 0.0 | 0.0 | 0.00 | 0.00 | 0.00 | 67 | |
| 20260503020241 | 57 | 310 | 0.0 | 0.0 | 0.00 | 0.00 | 0.00 | 67 | |
| 20260503015740 | 57 | 310 | 0.0 | 0.0 | 0.00 | 0.00 | 0.00 | 67 | |
| 20260503015240 | 57 | 310 | 0.0 | 0.0 | 0.00 | 0.00 | 0.00 | 67 | |
| 20260503014740 | 58 | 310 | 0.0 | 0.0 | 0.00 | 0.00 | 0.00 | 67 | |
| 20260503014239 | 58 | 310 | 0.0 | 0.0 | 0.00 | 0.00 | 0.00 | 66 | |
| 20260503013739 | 58 | 310 | 0.0 | 0.0 | 0.00 | 0.00 | 0.00 | 65 | |
| 20260503013239 | 58 | 310 | 0.0 | 0.0 | 0.00 | 0.00 | 0.00 | 65 | |
| 20260503012739 | 58 | 310 | 0.0 | 0.0 | 0.00 | 0.00 | 0.00 | 66 | |
| 20260503012238 | 58 | 310 | 0.0 | 0.0 | 0.00 | 0.00 | 0.00 | 65 | |
| 20260503011738 | 58 | 310 | 0.0 | 0.0 | 0.00 | 0.00 | 0.00 | 65 | |
| 20260503011238 | 58 | 310 | 0.0 | 0.0 | 0.00 | 0.00 | 0.00 | 65 | |
| 20260503010737 | 58 | 310 | 0.0 | 0.0 | 0.00 | 0.00 | 0.00 | 65 | |
| 20260503010237 | 58 | 310 | 0.0 | 0.0 | 0.00 | 0.00 | 0.00 | 65 | |
| 20260503005737 | 58 | 310 | 0.0 | 0.0 | 0.00 | 0.00 | 0.00 | 64 | |
| 20260503005237 | 58 | 310 | 0.0 | 0.0 | 0.00 | 0.00 | 0.00 | 64 | |
| 20260503004736 | 59 | 310 | 0.0 | 0.0 | 0.00 | 0.00 | 0.00 | 64 | |
| 20260503004236 | 59 | 310 | 0.0 | 0.0 | 0.00 | 0.00 | 0.00 | 64 | |
| 20260503003736 | 59 | 310 | 0.0 | 0.0 | 0.00 | 0.00 | 0.00 | 64 | |
| 20260503003235 | 59 | 310 | 0.0 | 0.0 | 0.00 | 0.00 | 0.00 | 63 | |
| 20260503002735 | 59 | 310 | 0.0 | 0.0 | 0.00 | 0.00 | 0.00 | 64 | |
| 20260503002235 | 59 | 310 | 0.0 | 0.0 | 0.00 | 0.00 | 0.00 | 63 | |
| 20260503001734 | 59 | 310 | 0.0 | 0.0 | 0.00 | 0.00 | 0.00 | 63 | |
| 20260503001234 | 59 | 310 | 0.0 | 0.0 | 0.00 | 0.00 | 0.00 | 63 | |
| 20260503000734 | 60 | 310 | 0.0 | 0.0 | 0.00 | 0.00 | 0.00 | 63 | |
| 20260503000234 | 60 | 310 | 0.0 | 0.0 | 0.00 | 0.00 | 0.00 | 62 | |
| 20260502235733 | 60 | 336 | 0.0 | 0.0 | 0.00 | 0.00 | 0.00 | 61 | |
| 20260502235233 | 60 | 336 | 0.0 | 0.0 | 0.00 | 0.00 | 0.00 | 61 |